Regional Weather Roundup
Issued by NWS

Home | Current Version | Previous Version | Text Only | Print | Product List | Glossary Off
Versions: 1 2 3 4 5 6 7 8 9 10 11 12 13 14 15 16 17 18 19 20 21 22 23 24 25 26 27 28 29 30 31 32 33 34 35 36 37 38 39 40 41 42 43 44 45 46 47 48 49 50

191
ASUS45 KBOU 290107
RWRCO

WEATHER ROUNDUP FOR COLORADO
NATIONAL WEATHER SERVICE DENVER/BOULDER CO
700 PM MDT TUE MAR 28 2017

NOTE: "FAIR" INDICATES FEW OR NO CLOUDS BELOW 12000 FEET WITH NO
SIGNIFICANT WEATHER AND/OR OBSTRUCTIONS TO VISIBILITY.

COZ001>005-013-030-031-290200-
...NORTHWEST COLORADO...

CITY           SKY/WX    TMP DP  RH WIND       PRES   REMARKS
CRAIG          CLOUDY    44  31  60 N16       30.00R
HAYDEN         FAIR      43  28  56 N14G20    29.99R
MEEKER         LGT RAIN  40  35  83 N8G18     30.01R
MOUNT WERNER   NOT AVBL
STEAMBOAT SPGS CLOUDY    38  36  91 E8        29.99R
WALDEN         NOT AVBL
$$

COZ006>008-011-290200-
...WEST CENTRAL VALLEYS...

CITY           SKY/WX    TMP DP  RH WIND       PRES   REMARKS
GRAND JUNCTION CLOUDY    51  40  65 NW8       29.95R
MONTROSE       FAIR      46  37  71 NW17G25   29.92R
EAGLE          CLOUDY    43  37  81 CALM      29.97R
RIFLE          CLOUDY    48  35  60 NW15      29.95R
DELTA          MOCLDY    51  36  56 W15       29.88R
NUCLA          MOCLDY    46  34  61 NW15G25   29.96R
$$

COZ017>023-064>068-290200-
...SOUTHWEST COLORADO...

CITY           SKY/WX    TMP DP  RH WIND       PRES   REMARKS
DURANGO        FAIR      42  35  76 CALM      29.81S
CORTEZ         MOCLDY    48  36  63 N14G21    29.87R
PAGOSA SPRINGS CLOUDY    40  37  88 SE5       29.84R
TELLURIDE      LGT SNOW  33  32  95 W10G18    29.94R WCI  25
WOLF CREEK PAS SNOW      23  23 100 N8        29.97R VSB 1/4 WCI  14
$$

COZ009-010-012-014-032>034-037-058>063-290200-
...CENTRAL COLORADO...

CITY           SKY/WX    TMP DP  RH WIND       PRES   REMARKS
ASPEN          LGT RAIN  38  34  85 W9        29.92R
BUENA VISTA    LGT RAIN  37  33  84 N7        29.93R
COPPER MTN     CLOUDY    28  23  80 N3        30.01R
BERTHOUD PASS  TSTM      19  10  68 NE6       30.03R VSB<1/4 WCI  11
COTTONWOOD PAS SNOW      34  32  93 E6        29.96R VSB 1/4 WCI  29
GUNNISON       LGT RAIN  37  34  89 SE8       29.90R
KREMMLING      CLOUDY    43  36  75 N10       29.98R
LEADVILLE      SNOW      30  27  88 N5        29.95R VSB 1/2 WCI  25
MONARCH PASS   CLOUDY    25  23  93 MISG      30.02S
SALIDA         CLOUDY    40  36  84 NW5       29.98R
SUNLIGHT       HVY SNOW N/A N/A N/A MISG      30.06R VSB<1/4
WILKERSON PASS SNOW      27  25  93 NE9G17    30.00R VSB 1/2 WCI  17
$$

COZ069>075-290200-
...SAN LUIS VALLEY/SANGRE DE CRISTO MOUNTAINS...

CITY           SKY/WX    TMP DP  RH WIND       PRES   REMARKS
ALAMOSA        CLOUDY    39  35  86 S8        29.82R
LA VETA PASS   NOT AVBL
SAGUACHE       CLOUDY    41  32  70 NW14G22   29.86R
$$

COZ035-036-038>040-290200-
...NORTHERN COLORADO FRONT RANGE...

CITY           SKY/WX    TMP DP  RH WIND       PRES   REMARKS
DENVER INTL AP LGT RAIN  42  40  92 NW22      29.93R VSB 1/4
DMNS CITY PARK   N/A     41  38  91 NW7G23    29.97R
AURORA         NOT AVBL
FRONT RANGE AP DRIZZLE   45  45 100 NW13      29.93R
ERIE MUNI ARPT RAIN      42  39  90 N16G25    29.97R
BOULDER MUN AP DRIZZLE   43  39  87 N12       29.97R
CENTENNIAL     LGT RAIN  40  38  93 NW17G24   29.94R FOG
BROOMFIELD     DRIZZLE   41  39  93 N14G25    29.96R
FORT COLLINS   LGT RAIN  41  38  89 N21G28    29.98R
LONGMONT       DRIZZLE   45  40  82 N15G21    29.99R
$$

COZ041-046-047-076>085-087-088-290200-
...PIKES PEAK/PALMER DIVIDE AND SOUTHERN FOOTHILLS...

CITY           SKY/WX    TMP DP  RH WIND       PRES   REMARKS
COLO. SPRINGS  LGT RAIN  41  35  79 NE13      29.93R
A. F. ACADEMY  CLOUDY    39  35  86 N18G24    29.92R
SCHRIEVER AFB  LGT RAIN  38  37  95 NE8       29.93R
ELLICOTT       MIX PCPN N/A N/A N/A E8        29.92R
FALCON         LGT RAIN  39  35  86 E8        29.94R
FORT CARSON    RAIN      41  39  93 NE13      29.92R
LIMON          LGT RAIN  40  40 100 SE13      29.93R
MONUMENT HILL  LGT RAIN  34  34 100 NW15G21   29.95R VSB 1/4 WCI  24
TRINIDAD       HVY RAIN  44  42  93 N17       29.83R FOG
$$

COZ042>045-048>051-090-091-290200-
...NORTHEAST COLORADO...

CITY           SKY/WX    TMP DP  RH WIND       PRES   REMARKS
GREELEY ARPT   LGT RAIN  45  42  89 N16       29.96R
AKRON          LGT RAIN  40  38  93 SE17      29.95R
BURLINGTON     CLOUDY    40  38  93 E17       29.93R
WRAY           NOT AVBL
STERLING       CLOUDY    43  41  93 E8        29.97R
HOLYOKE        CLOUDY    43  41  93 E12       30.01R
FORT MORGAN    RAIN      43  42  95 E13G21    29.95R
$$

COZ086-089-092>099-290200-
...SOUTHEAST COLORADO...

CITY           SKY/WX    TMP DP  RH WIND       PRES   REMARKS
PUEBLO         LGT RAIN  45  43  93 E17       29.89R
LA JUNTA       CLOUDY    44  42  93 E17       29.89R FOG
LAMAR          LGT RAIN  44  42  93 E13       29.88R FOG
SPRINGFIELD      N/A     41  41 100 E13       29.85R
$$




USA.gov is the U.S. government's official web portal to all federal, state and local government web resources and services.